Weather in Bidzhan

Russia / Jewish Autonomous Oblast     47°58′26″N   131°56′18″E
temp.,
°C
wind,
m/s
gust,
m/s
humid.,
%
clouds,
%
prec.,
mm/h
press.,
hPa
HPBL,
m
11 april, sun
sun1101:00+9ssw41040100 0.0 1020232
04:00+9sse61340100 0.0 1018309
07:00+9s4941100 0.0 1019289
10:00+11wsw6948100 0.1 1019694
13:00+11wsw5964100 0.0 1019566
16:00+11wsw3557100 0.0 1019567
19:00+10nnw2367100 0.0 101975
22:00+8nnw2390100 2.6 1019115
12 april, mon
mon1201:00+7n3593100 5.3 1018281
04:00+5nne2493100 7.9 1018232
07:00+5ese2293100 1.0 1017131
10:00+5ese3691100 1.3 1015361
13:00+13w4956100 0.1 10111234
16:00+12nnw566389 0.1 1007418
19:00+7n6774100 0.0 1006273
22:00+5nw4682100 0.1 1007337
13 april, tue
tue1301:00+1nw4696100 1.8 1008379
04:00−2nw6972100 2.1 1009610
07:00−3wnw61058100 0.0 1010718
10:00−2nw9124576 0.0 10111101
13:00+1nw91041100 0.0 10102195
16:000wnw91144100 0.0 10092438
19:000wnw811435 0.1 10081944
22:00−2w7125774 0.1 1008784
14 april, wed
wed1401:00−2w713554 0.0 1008640
04:00−3w711531 0.0 1008550
07:00−4w611575 0.0 1008641
10:000wnw79375 0.0 10091509
13:00+2wnw7834100 0.0 10092480
16:00+3nw81032100 0.0 10092612
19:00+2nw69386 0.0 10111379
22:00−1w35605 0.0 101378
15 april, thu
thu1501:00−1wsw23700 0.0 101343
04:00−1s22725 0.0 101326
07:00−1se23725 0.0 101362
10:00+4se464191 0.0 1013675
13:00+9se7927100 0.0 10101291
16:00+11se81328100 0.0 10061855
19:00+10se81532100 0.0 1004751
22:00+8se101762100 0.4 10041417